Date String (YYYY-MM-DD hh:mm:ss) UTC,Instrument flags,absolute air pressure of the measurement (hPa),sample flow rate (lpm),inlet stack bypass flow (lpm),air temperature of the measurement (°C),ambient temperature measured by the external sensor (°C),aerosol sample conditioner tube jacket temperature (°C),OPC LED temperature (°C),internal box temperature (°C),relative humidity of the measurement (%),span deviation,mass concentration of particles derived from Lorenz-Mie calculation of OPC scattering (μg/m³),mass concentration of particles derived from Lorenz-Mie calculation of OPC scattering (μg/m³),mass concentration of particles derived from Lorenz-Mie calculation of OPC scattering (μg/m³)
DateTimeUTC,F1_M11,P_M11,Q1_M11,Q2_M11,T1_M11,T2_M11,T3_M11,T4_M11,T5_M11,U1_M11,ZSPAN_M11,X0_M11,X2_M11,X1_M11
2023-10-29 14:00:00,SystemResetWarning,0837.8,5.00,000.00,021.7,020.3,000.0,029.9,023.3,12.8,0000.4,0007.08,0005.17,0005.07
2023-10-29 14:01:00,SystemResetWarning,0837.8,5.00,000.00,021.8,021.1,000.0,029.8,023.6,12.7,-000.1,0007.09,0005.18,0005.09
2023-10-29 14:02:00,SystemResetWarning,0837.8,4.99,000.00,021.9,021.6,000.0,029.9,023.8,12.7,0000.3,0007.13,0005.22,0005.11
2023-10-29 14:03:00,SystemResetWarning,0837.8,4.99,000.00,021.9,021.5,000.0,030.0,023.7,12.6,0000.7,0007.20,0005.25,0005.14
2023-10-29 14:04:00,SystemResetWarning,0837.8,5.02,000.00,021.9,021.4,000.0,030.0,023.6,12.7,0000.2,0007.23,0005.26,0005.15
2023-10-29 14:05:00,SystemResetWarning,0837.8,5.01,000.00,021.9,021.2,000.0,030.0,023.5,12.7,0000.1,0007.28,0005.28,0005.16
2023-10-29 14:06:00,SystemResetWarning,0837.8,5.00,000.00,021.9,021.1,000.0,030.1,023.5,12.7,-000.8,0007.33,0005.31,0005.18
2023-10-29 14:07:00,SystemResetWarning,0838.0,4.99,000.00,021.9,021.0,000.0,030.1,023.4,12.7,-000.5,0007.41,0005.32,0005.19
2023-10-29 14:08:00,SystemResetWarning,0838.0,4.99,000.00,021.8,020.9,000.0,030.1,023.4,12.8,-000.4,0007.40,0005.31,0005.18
2023-10-29 14:09:00,SystemResetWarning,0838.0,5.01,000.00,021.8,020.8,000.0,030.1,023.4,12.8,0000.0,0007.41,0005.32,0005.18
2023-10-29 14:10:00,SystemResetWarning,0837.9,5.01,000.00,021.8,020.7,000.0,030.1,023.3,12.8,-000.1,0007.39,0005.33,0005.20
2023-10-29 14:11:00,SystemResetWarning,0838.0,4.99,000.00,021.8,020.6,000.0,030.1,023.3,12.8,-000.7,0007.48,0005.33,0005.20
2023-10-29 14:12:00,SystemResetWarning,0837.9,4.99,000.00,021.8,020.6,000.0,030.1,023.3,12.9,-001.0,0007.60,0005.34,0005.21
2023-10-29 14:13:00,SystemResetWarning,0838.0,4.99,000.00,021.8,020.5,000.0,030.1,023.3,12.9,-001.1,0007.57,0005.33,0005.22
2023-10-29 14:14:00,SystemResetWarning,0838.0,5.00,000.00,021.8,020.4,000.0,030.1,023.2,12.9,-001.5,0007.54,0005.31,0005.21
2023-10-29 14:15:00,SystemResetWarning,0837.9,5.00,000.00,021.7,020.4,000.0,030.1,023.2,12.9,-001.6,0007.52,0005.30,0005.21
2023-10-29 14:16:00,SystemResetWarning,0837.9,5.01,000.00,021.7,020.4,000.0,030.1,023.2,13.0,-001.3,0007.46,0005.28,0005.20
2023-10-29 14:17:00,SystemResetWarning,0838.0,5.00,000.00,021.7,020.3,000.0,030.1,023.2,13.0,-000.9,0007.45,0005.26,0005.18
2023-10-29 14:18:00,SystemResetWarning,0838.0,5.00,000.00,021.7,020.3,000.0,030.1,023.2,13.0,-000.8,0007.34,0005.24,0005.16
2023-10-29 14:19:00,SystemResetWarning,0838.1,4.98,000.00,021.7,020.3,000.0,030.1,023.2,13.0,0000.0,0007.34,0005.25,0005.17
2023-10-29 14:20:00,SystemResetWarning,0838.2,4.99,000.00,021.7,020.3,000.0,030.1,023.2,13.1,-000.5,0007.32,0005.25,0005.18
2023-10-29 14:21:00,SystemResetWarning,0838.2,5.00,000.00,021.7,020.2,000.0,030.1,023.2,13.1,-000.2,0007.35,0005.25,0005.17
2023-10-29 14:22:00,SystemResetWarning,0838.2,5.00,000.00,021.6,020.2,000.0,030.0,023.1,13.1,0001.1,0007.29,0005.24,0005.15
2023-10-29 14:23:00,SystemResetWarning,0838.2,5.00,000.00,021.6,020.2,000.0,030.0,023.1,13.1,0002.4,0006.97,0005.24,0005.16
2023-10-29 14:24:00,SystemResetWarning,0838.2,5.00,000.00,021.6,020.2,000.0,030.0,023.1,13.2,0002.8,0006.98,0005.23,0005.14
2023-10-29 14:25:00,SystemResetWarning,0838.2,5.00,000.00,021.6,020.2,000.0,030.0,023.1,13.2,0002.0,0006.96,0005.22,0005.13
2023-10-29 14:26:00,SystemResetWarning,0838.1,4.99,000.00,021.6,020.1,000.0,030.0,023.0,13.2,0001.2,0006.96,0005.22,0005.14
2023-10-29 14:27:00,SystemResetWarning,0838.2,4.99,000.00,021.6,020.1,000.0,030.0,023.0,13.3,0002.9,0007.04,0005.24,0005.14
2023-10-29 14:28:00,SystemResetWarning,0838.2,4.99,000.00,021.6,020.1,000.0,030.0,023.0,13.3,0002.9,0007.06,0005.24,0005.14
2023-10-29 14:29:00,SystemResetWarning,0838.2,5.00,000.00,021.5,020.1,000.0,030.0,023.0,13.4,0003.2,0007.13,0005.25,0005.13
2023-10-29 14:30:00,SystemResetWarning,0838.2,5.01,000.00,021.5,020.1,000.0,029.9,023.0,13.4,0002.9,0007.12,0005.23,0005.11
2023-10-29 14:31:00,SystemResetWarning,0838.2,5.00,000.00,021.5,020.1,000.0,029.9,023.0,13.4,0002.3,0007.15,0005.23,0005.10
2023-10-29 14:32:00,SystemResetWarning,0838.3,5.00,000.00,021.5,020.1,000.0,029.9,023.0,13.4,0002.5,0007.13,0005.21,0005.09
2023-10-29 14:33:00,SystemResetWarning,0838.3,5.00,000.00,021.5,020.0,000.0,029.9,023.0,13.5,0002.3,0007.14,0005.21,0005.09
2023-10-29 14:34:00,SystemResetWarning,0838.3,5.01,000.00,021.5,020.0,000.0,029.9,023.0,13.5,0000.8,0007.11,0005.20,0005.07
2023-10-29 14:35:00,SystemResetWarning,0838.3,4.99,000.00,021.5,020.0,000.0,029.9,023.0,13.5,0000.0,0007.16,0005.20,0005.07
2023-10-29 14:36:00,SystemResetWarning,0838.4,4.99,000.00,021.5,020.0,000.0,029.9,023.0,13.5,0000.0,0007.18,0005.20,0005.07
2023-10-29 14:37:00,SystemResetWarning,0838.4,5.00,000.00,021.5,020.0,000.0,029.8,023.0,13.5,0000.0,0007.21,0005.20,0005.06
2023-10-29 14:38:00,SystemResetWarning,0838.5,5.02,000.00,021.6,020.7,000.0,029.8,023.3,13.5,0000.0,0007.17,0005.19,0005.05
2023-10-29 14:39:00,SystemResetWarning,0838.6,5.00,000.00,021.7,021.4,000.0,029.7,023.6,13.4,0000.0,0007.21,0005.19,0005.06
2023-10-29 14:40:00,SystemResetWarning,0838.6,4.99,000.00,021.7,021.4,000.0,029.8,023.5,13.4,0000.0,0007.12,0005.17,0005.05
2023-10-29 14:41:00,SystemResetWarning,0838.6,4.99,000.00,021.7,021.3,000.0,029.9,023.4,13.3,0000.0,0007.11,0005.16,0005.05
2023-10-29 14:42:00,SystemResetWarning,0838.6,5.00,000.00,021.7,021.1,000.0,029.9,023.3,13.3,0000.0,0007.10,0005.16,0005.04
2023-10-29 14:43:00,SystemResetWarning,0838.6,5.01,000.00,021.7,020.9,000.0,029.9,023.3,13.4,0000.0,0007.06,0005.15,0005.04
2023-10-29 14:44:00,SystemResetWarning,0838.6,5.00,000.00,021.7,020.8,000.0,029.9,023.2,13.4,0000.0,0007.03,0005.15,0005.04
2023-10-29 14:45:00,SystemResetWarning,0838.6,5.00,000.00,021.6,020.6,000.0,030.0,023.2,13.4,-000.1,0007.23,0005.16,0005.05
2023-10-29 14:46:00,SystemResetWarning,0838.5,5.00,000.00,021.6,020.5,000.0,030.0,023.1,13.4,-000.3,0007.79,0005.16,0005.05
2023-10-29 14:47:00,SystemResetWarning,0838.6,5.01,000.00,021.6,020.4,000.0,030.0,023.1,13.4,0000.3,0007.82,0005.15,0005.05
2023-10-29 14:48:00,SystemResetWarning,0838.6,5.00,000.00,021.6,020.3,000.0,030.0,023.1,13.4,0000.1,0007.86,0005.16,0005.04
2023-10-29 14:49:00,SystemResetWarning,0838.6,5.00,000.00,021.5,020.2,000.0,030.0,023.0,13.4,-001.2,0007.90,0005.18,0005.04
2023-10-29 14:50:00,SystemResetWarning,0838.6,5.00,000.00,021.5,020.2,000.0,029.9,023.0,13.4,-000.2,0007.86,0005.16,0005.03
2023-10-29 14:51:00,SystemResetWarning,0838.6,5.00,000.00,021.5,020.1,000.0,029.9,023.0,13.5,0000.3,0007.87,0005.18,0005.05
2023-10-29 14:52:00,SystemResetWarning,0838.6,5.00,000.00,021.5,020.1,000.0,029.9,023.0,13.5,0001.7,0007.90,0005.19,0005.06
2023-10-29 14:53:00,SystemResetWarning,0838.7,5.00,000.00,021.5,020.0,000.0,029.9,022.9,13.5,0002.1,0007.93,0005.21,0005.07
2023-10-29 14:54:00,SystemResetWarning,0838.7,5.00,000.00,021.4,020.0,000.0,029.9,022.9,13.5,0002.3,0007.95,0005.22,0005.08
2023-10-29 14:55:00,SystemResetWarning,0838.7,5.00,000.00,021.4,020.0,000.0,029.9,022.9,13.5,0002.1,0007.98,0005.23,0005.08
2023-10-29 14:56:00,SystemResetWarning,0838.7,5.00,000.00,021.4,020.0,000.0,029.9,022.9,13.5,0001.2,0007.90,0005.24,0005.08
2023-10-29 14:57:00,SystemResetWarning,0838.8,5.00,000.00,021.4,019.9,000.0,029.9,022.8,13.5,0001.4,0007.46,0005.26,0005.09
2023-10-29 14:58:00,SystemResetWarning,0838.8,5.00,000.00,021.4,019.9,000.0,029.9,022.8,13.5,0000.2,0007.44,0005.27,0005.11
2023-10-29 14:59:00,SystemResetWarning,0838.8,5.00,000.00,021.3,019.8,000.0,029.8,022.8,13.5,0000.0,0007.46,0005.30,0005.13
